Regional Weather Roundup
Issued by NWS Jackson, KY

Home | Current Version | Previous Version | Graphics & Text | Print | Product List | Glossary On
Versions: 1 2 3 4 5 6 7 8 9 10 11 12 13 14 15 16 17 18 19 20 21 22 23 24 25 26 27 28 29 30 31 32 33 34 35 36 37 38 39 40 41 42 43 44 45 46 47 48
000
ASUS43 KJKL 270210
RWRJKL

EAST KENTUCKY HOURLY WEATHER ROUNDUP
NATIONAL WEATHER SERVICE JACKSON KY
1000 PM EDT SUN APR 26 2015

NOTE: "FAIR" INDICATES FEW OR NO CLOUDS BELOW 12,000 FEET WITH
NO SIGNIFICANT WEATHER AND/OR OBSTRUCTIONS TO VISIBILITY.

* THESE REPORTS ARE NOT UNDER NWS QUALITY CONTROL AND MAY NOT
  REPORT WEATHER SUCH AS PRECIPITATION AND FOG.

KYZ079-080-083-085-087-088-110-112-115-119-120-270300
...EASTERN KENTUCKY...

CITY           SKY/WX    TMP DP  RH WIND       PRES   REMARKS
JACKSON          N/A     53  33  46 VRB6      29.84R
LONDON         CLEAR     53  34  48 NW5       29.85R
SOMERSET*      CLEAR     48  39  71 CALM      29.88R
MONTICELLO*    MOCLDY    48  44  86 CALM      29.89R
MIDDLESBORO*   CLEAR     48  48  97 CALM      29.85R
HARLAN APT*    CLEAR     48  41  76 N7        29.84R
HAZARD APT*    CLEAR     54  36  50 NW5       29.84R
BLACK MTN*       N/A     41  39  93 S2          N/A
PIKEVILLE APT* CLEAR     54  32  43 N7        29.82R
BIG SANDY*     PTCLDY    54  32  43 CALM      29.82S
MOREHEAD APT*  CLEAR     52  34  50 N8        29.88R
$$

KYZ035-036-041-042-044-050-067-078-099-270300
...CENTRAL KENTUCKY...

CITY           SKY/WX    TMP DP  RH WIND       PRES   REMARKS
MT STERLING*   CLEAR     50  36  57 NE5       29.88R
FLEMING/MASON* CLEAR     50  34  53 N8        29.88S
DANVILLE*      CLEAR     46  36  66 N6        29.88R
RICHMOND*      CLEAR     50  37  62 CALM      29.86R
LEXINGTON      CLEAR     50  36  58 N8        29.88R
FRANKFORT      CLEAR     53  34  48 N8        29.88R
$$

KYZ091>093-OHZ055-061-077-WVZ005-015-034-035-042-270300
...SOUTHERN OHIO/WEST VIRGINIA...

CITY           SKY/WX    TMP DP  RH WIND       PRES   REMARKS
COVINGTON      MOCLDY    50  35  56 N7        29.90R
COLUMBUS       CLEAR     47  31  53 N5        29.89R
DAYTON         PTCLDY    48  32  53 E3        29.90R
WILMINGTON     CLEAR     43  33  68 NE8       29.90R
HUNTINGTON     CLEAR     53  32  44 NW9       29.83R
CHARLESTON     PTCLDY    53  32  44 NW6       29.80R
PINEVILLE*     CLEAR     42  42 100 MISG      29.87R
BECKLEY        CLEAR     46  37  71 W6        29.80R
BLUEFIELD      PTCLDY    43  38  82 W7        29.82R
$$

VAZ002-007-008-TNZ017-027-036-066-071-270300
...SOUTHWEST VIRGINIA/EAST TENNESSEE...

CITY           SKY/WX    TMP DP  RH WIND       PRES   REMARKS
WISE*          MOCLDY    45  37  76 SE5       29.84R
JONESVILLE*    CLOUDY    50  46  87 CALM      29.85R
ABINGDON*      CLOUDY    50  42  74 CALM      29.84R
BRISTOL        CLOUDY    52  42  69 NE3       29.83R
KNOXVILLE      CLOUDY    55  47  74 N3        29.83R
OAK RIDGE      CLOUDY    55  46  71 CALM      29.85R
CROSSVILLE     CLEAR     48  44  86 W5        29.86R
NASHVILLE      CLEAR     53  48  83 CALM      29.88R
$$

...KEY TO REMARKS...
VSB - VISIBILITY IN MILES
WCI - WIND CHILL INDEX
HX  - HEAT INDEX

$$



USA.gov is the U.S. government's official web portal to all federal, state and local government web resources and services.